Location: Praha
(50.0875°N, 14.4213°E)
Time: 06:13:39
(UTC+02:00)

ISS - Pass Details

Date: 21 May 2026
Orbit: 413 x 423 km, 51.6° (Epoch: 5 June)

Event Time Altitude Azimuth Distance (km) Brightness Sun altitude
Rises 21:49:42 0° 287° (WNW) 2,352 1.3 -8.1°
Reaches altitude 10° 21:51:50 10° 283° (WNW) 1,488 0.0 -8.4°
Maximum altitude 21:55:05 52° 206° (SSW) 521 -3.4 -8.7°
Enters shadow 21:57:55 13° 130° (SE) 1,316 -1.9 -9.0°
